Location: Haliburton Scout Reserve
(45.0900°N, 78.3200°W)
Time: 17:46:10
(UTC-05:00)

Courier 1B - Pass Details

Date: 04 December 2023
Orbit: 962 x 1209 km, 28.3° (Epoch: 23 February)

Event Time Altitude Azimuth Distance (km) Brightness Sun altitude
Rises 10:21:47 0° 227° (SW) 3,726 10.8 18.8°
Reaches altitude 10° 10:25:39 10° 206° (SSW) 2,738 10.5 19.1°
Maximum altitude 10:29:23 16° 171° (S) 2,315 11.5 19.3°
Drops below altitude 10° 10:33:03 10° 136° (SE) 2,692 11.3 19.6°
Sets 10:36:48 0° 115° (ESE) 3,632 11.2 19.8°
